Weather History for KAMW - March, 2013

Change the Weather History Date:

Monday, March 11, 2013

  Actual Average Record
Temperature  
Mean Temperature 26 °F 35 °F  
Max Temperature 30 °F 45 °F 61 °F (2006)
Min Temperature 22 °F 25 °F -2 °F (1998)
Degree Days  
Heating Degree Days 39 30  
Month to date heating degree days 416 360  
Since 1 July heating degree days 5423 5645  
Cooling Degree Days 0 0  
Month to date cooling degree days 0 0  
Year to date cooling degree days 0 0  
Moisture  
Dew Point 24 °F    
Average Humidity 88    
Maximum Humidity 100    
Minimum Humidity 75    
Precipitation  
Precipitation 0.01 in 0.06 in 0.51 in (1990)
Month to date precipitation 1.49 0.61  
Sea Level Pressure  
Sea Level Pressure 29.80 in    
Wind  
Wind Speed 16 mph (NW)    
Max Wind Speed 25 mph    
Max Gust Speed 33 mph    
Visibility 5 miles    
Events Snow    
T = Trace of Precipitation, MM = Missing Value Source: NWS Daily Summary

Daily Weather History Graph

Daily Weather History Graph

Search for Another Location

Airport or City:

Trip Planner

Search our weather history database for the weather conditions in past years. The results will help you decide how hot, cold, wet, or windy it might be!

Date:

Astronomy

Mar. 11, 2013 Rise Set
Actual Time 7:32 AM CDT 7:16 PM CDT
Civil Twilight 7:04 AM CDT 7:44 PM CDT
Nautical Twilight 6:32 AM CDT 8:16 PM CDT
Astronomical Twilight 5:59 AM CDT 8:49 PM CDT
Moon 7:06 AM CDT (3/11) 7:30 PM CDT (3/11)
Length of Visible Light 12h 39m
Length of Day
11h 44m
Waning Crescent, 0% of the Moon is Illuminated
Mar 11
Waning Crescent
Mar 11
New
Mar 19
First Quarter
Mar 27
Full
Apr 2
Last Quarter

Hourly Weather History & Observations

Time (CDT) Temp. Windchill Dew Point Humidity Pressure Visibility Wind Dir Wind Speed Gust Speed Precip Events Conditions
12:53 AM 30.0 °F 17.2 °F 28.0 °F 92% 29.77 in 1.2 mi NNW 20.7 mph 27.6 mph 0.00 in Snow Light Snow
1:37 AM 28.4 °F 14.4 °F 26.6 °F 93% 29.74 in 2.0 mi NNW 23.0 mph 29.9 mph 0.00 in Snow Light Snow
1:53 AM 28.9 °F 15.8 °F 27.0 °F 92% 29.76 in 3.0 mi NNW 20.7 mph - 0.00 in   Overcast
2:41 AM 28.4 °F 15.1 °F 26.6 °F 93% 29.74 in 3.0 mi NNW 20.7 mph 31.1 mph 0.00 in   Overcast
2:49 AM 28.4 °F 15.1 °F 26.6 °F 93% 29.74 in 2.0 mi NNW 20.7 mph - 0.00 in Snow Light Snow
2:50 AM 28.9 °F 15.4 °F 27.0 °F 92% 29.76 in 2.0 mi NNW 21.9 mph - 0.00 in Snow Light Snow
2:57 AM 28.4 °F 14.4 °F 26.6 °F 93% 29.74 in 1.2 mi North 23.0 mph 29.9 mph 0.00 in Snow Light Snow
3:06 AM 28.4 °F 14.7 °F 26.6 °F 93% 29.74 in 1.2 mi NNW 21.9 mph 29.9 mph 0.00 in Snow Light Snow
3:18 AM 28.4 °F 14.7 °F 26.6 °F 93% 29.74 in 1.0 mi North 21.9 mph 31.1 mph 0.00 in Snow Light Snow
3:24 AM 28.4 °F 15.1 °F 26.6 °F 93% 29.73 in 0.8 mi NNW 20.7 mph 29.9 mph 0.00 in Snow Light Snow
3:31 AM 28.4 °F 14.7 °F 26.6 °F 93% 29.73 in 0.8 mi NNW 21.9 mph 28.8 mph 0.00 in Snow Light Snow
3:43 AM 28.4 °F 14.7 °F 26.6 °F 93% 29.73 in 0.8 mi NNW 21.9 mph 28.8 mph 0.00 in   Mist
3:53 AM 28.0 °F 14.6 °F 26.1 °F 92% 29.75 in 0.8 mi North 20.7 mph - 0.00 in   Mist
4:27 AM 26.6 °F 13.4 °F 26.6 °F 100% 29.73 in 1.0 mi NNW 18.4 mph 31.1 mph 0.01 in   Overcast
5:53 AM 27.0 °F 13.5 °F 25.0 °F 92% 29.76 in 1.0 mi NNW 19.6 mph - 0.00 in Snow Light Snow
6:17 AM 26.6 °F 13.8 °F 24.8 °F 93% 29.74 in 0.8 mi NNW 17.3 mph - 0.00 in Snow Light Snow
6:24 AM 26.6 °F 13.4 °F 24.8 °F 93% 29.74 in 1.0 mi NNW 18.4 mph - 0.00 in Snow Light Snow
6:53 AM 26.1 °F 12.3 °F 24.1 °F 92% 29.78 in 1.8 mi NNW 19.6 mph 26.5 mph 0.00 in Snow Light Snow
7:06 AM 26.6 °F 13.8 °F 24.8 °F 93% 29.76 in 1.5 mi NNW 17.3 mph - 0.00 in Snow Light Snow
7:53 AM 26.1 °F 13.1 °F 24.1 °F 92% 29.80 in 1.0 mi NNW 17.3 mph - 0.01 in Snow Light Snow
8:11 AM 24.8 °F 11.5 °F 23.0 °F 93% 29.77 in 0.8 mi NNW 17.3 mph - 0.00 in Snow Light Snow
8:15 AM 24.8 °F 11.5 °F 23.0 °F 93% 29.77 in 1.0 mi NNW 17.3 mph - 0.00 in Snow Light Snow
8:53 AM 26.1 °F 13.1 °F 23.0 °F 88% 29.81 in 1.0 mi NNW 17.3 mph - 0.00 in Snow Light Snow
9:40 AM 26.6 °F 13.1 °F 23.0 °F 86% 29.79 in 3.0 mi NW 19.6 mph - 0.00 in   Overcast
9:53 AM 26.1 °F 13.1 °F 21.9 °F 84% 29.82 in 9.0 mi NW 17.3 mph 24.2 mph 0.00 in   Overcast
10:53 AM 26.1 °F 14.0 °F 23.0 °F 88% 29.81 in 10.0 mi NNW 15.0 mph 25.3 mph N/A   Overcast
11:53 AM 27.0 °F 14.3 °F 23.0 °F 85% 29.82 in 10.0 mi NW 17.3 mph - N/A   Overcast
12:53 PM 27.0 °F 13.9 °F 23.0 °F 85% 29.82 in 10.0 mi WNW 18.4 mph 23.0 mph N/A   Overcast
1:53 PM 27.0 °F 13.9 °F 23.0 °F 85% 29.83 in 10.0 mi WNW 18.4 mph 24.2 mph N/A   Overcast
2:53 PM 27.0 °F 14.3 °F 21.9 °F 81% 29.83 in 10.0 mi NW 17.3 mph - N/A   Overcast
3:53 PM 28.0 °F 16.5 °F 21.9 °F 78% 29.84 in 10.0 mi WNW 15.0 mph - N/A   Overcast
4:53 PM 27.0 °F 14.7 °F 21.0 °F 78% 29.86 in 10.0 mi WNW 16.1 mph - N/A   Overcast
5:53 PM 26.1 °F 13.6 °F 21.0 °F 81% 29.87 in 10.0 mi WNW 16.1 mph - N/A   Overcast
6:44 PM 24.8 °F 15.3 °F 19.4 °F 80% 29.85 in 10.0 mi WNW 9.2 mph - N/A   Mostly Cloudy
6:53 PM 25.0 °F 14.2 °F 19.9 °F 81% 29.89 in 10.0 mi WNW 11.5 mph - N/A   Mostly Cloudy
7:53 PM 21.9 °F 12.5 °F 18.0 °F 85% 29.93 in 10.0 mi West 8.1 mph - N/A   Clear
8:53 PM 24.1 °F 14.4 °F 19.9 °F 84% 29.93 in 10.0 mi West 9.2 mph - N/A   Overcast
9:53 PM 23.0 °F 13.9 °F 19.0 °F 85% 29.95 in 10.0 mi West 8.1 mph - N/A   Partly Cloudy
10:53 PM 25.0 °F 14.8 °F 21.0 °F 85% 29.95 in 10.0 mi West 10.4 mph - N/A   Overcast
11:53 PM 26.1 °F 16.2 °F 21.0 °F 81% 29.96 in 10.0 mi West 10.4 mph - N/A   Overcast